{"data":{"norad_id":82272,"intl_designator":"","name":"UNKNOWN","alt_names":[],"object_type":"UNKNOWN","status":"UNKNOWN","operator":null,"country":null,"launch_date":null,"launch_site_code":null,"launch_vehicle":null,"mission":null,"orbit_class":"UNKNOWN","rcs_meters":null,"size_class":null,"mass_kg":null,"dimensions":null,"purposes":[],"wikipedia_slug":null,"has_3d_model":false,"image_url":null,"decayed_at":null,"tle_current":{"epoch":"2026-05-18T16:04:36.475968Z","epoch_age_seconds":621701,"freshness":"AGED","line1":"1 82272U          26138.66986662 -.00000250  00000+0 -62615-3 0  9991","line2":"2 82272  67.5239 276.5007 0755617   5.4678 355.4015 12.33684441291295","mean_motion":12.33684441,"eccentricity":0.0755617,"inclination_deg":67.5239,"raan_deg":276.5007,"arg_perigee_deg":5.4678,"mean_anomaly_deg":355.4015,"bstar":-0.00062615,"rev_number":29129,"period_min":116.72352768207,"perigee_km":935.67366149551,"apogee_km":2131.3055756227,"semimajor_km":7911.6266185591,"source":"CELESTRAK","updated_at":"2026-05-25T13:38:11.186486Z"}}}